Bangalore, India

11:09 AM IST on September 21, 2017 (GMT +0530)
Bangalore

Weather History for VOBL - February, 2014

Change the Weather History Date:

Wednesday, February 5, 2014

  Actual Average Record
Temperature  
Mean Temperature 76 °F -  
Max Temperature 93 °F - - ()
Min Temperature 60 °F - - ()
Cooling Degree Days 12    
Growing Degree Days 26 (Base 50)    
Moisture  
Dew Point 51 °F    
Average Humidity 47    
Maximum Humidity 94    
Minimum Humidity 14    
Precipitation  
Precipitation 0.00 in - - ()
Sea Level Pressure  
Sea Level Pressure 29.96 in    
Wind  
Wind Speed 3 mph ()    
Max Wind Speed 9 mph    
Max Gust Speed -    
Visibility 3.9 miles    
Events      
T = Trace of Precipitation, MM = Missing Value Source: Averaged Metar Reports

Daily Weather History Graph

Daily Weather History Graph

Search for Another Location

Airport or City:

Trip Planner

Search our weather history database for the weather conditions in past years. The results will help you decide how hot, cold, wet, or windy it might be!

Date:

Astronomy

Feb. 05, 2014 Rise Set
Actual Time 6:44 AM IST 6:21 PM IST
Civil Twilight 6:22 AM IST 6:43 PM IST
Nautical Twilight 5:57 AM IST 7:08 PM IST
Astronomical Twilight 5:32 AM IST 7:34 PM IST
Moon 10:49 AM IST (2/5) 11:36 PM IST (2/5)
Length of Visible Light 12h 20m
Length of Day
11h 36m
Waxing Crescent, 34% of the Moon is Illuminated
Feb 5
Waxing Crescent
Feb 7
First Quarter
Feb 15
Full
Feb 22
Last Quarter
Mar 1
New

Hourly Weather History & Observations

Time (IST) Temp. Heat Index Dew Point Humidity Pressure Visibility Wind Dir Wind Speed Gust Speed Precip Events Conditions
12:30 AM 69.8 °F - 59.0 °F 68% 29.95 in 3.7 mi East 3.5 mph - N/A   Unknown
1:30 AM 68.0 °F - 59.0 °F 73% 29.95 in 3.7 mi Calm Calm - N/A   Unknown
2:30 AM 68.0 °F - 57.2 °F 68% 29.92 in 3.7 mi Calm Calm - N/A   Unknown
3:30 AM 64.4 °F - 59.0 °F 83% 29.92 in 3.7 mi Variable 2.3 mph - N/A   Unknown
4:30 AM 66.2 °F - 57.2 °F 73% 29.92 in 3.7 mi West 3.5 mph - N/A   Unknown
5:30 AM 64.4 °F - 59.0 °F 83% 29.95 in 3.7 mi Calm Calm - N/A   Unknown
6:30 AM 60.8 °F - 59.0 °F 94% 29.95 in 3.7 mi Variable 1.2 mph - N/A   Unknown
7:30 AM 62.6 °F - 59.0 °F 88% 29.98 in 3.7 mi Calm Calm - N/A   Unknown
8:30 AM 71.6 °F - 60.8 °F 69% 30.01 in 3.7 mi Variable 2.3 mph - N/A   Unknown
9:30 AM 78.8 °F - 57.2 °F 47% 30.04 in 5.0 mi ESE 4.6 mph - N/A   Unknown
10:30 AM 82.4 °F 81.4 °F 53.6 °F 37% 30.04 in 5.0 mi East 5.8 mph - N/A   Unknown
11:30 AM 87.8 °F - 48.2 °F 25% 30.01 in - East 6.9 mph - N/A   Clear
12:30 PM 89.6 °F - 48.2 °F 24% 29.98 in - Variable 2.3 mph - N/A   Clear
1:30 PM 91.4 °F - 44.6 °F 20% 29.95 in - ENE 9.2 mph - N/A   Clear
2:30 PM 91.4 °F - 41.0 °F 17% 29.92 in - Variable 6.9 mph - N/A   Clear
3:30 PM 93.2 °F - 41.0 °F 16% 29.89 in - Variable 5.8 mph - N/A   Clear
4:30 PM 93.2 °F - 37.4 °F 14% 29.89 in - ENE 4.6 mph - N/A   Clear
5:30 PM 91.4 °F - 39.2 °F 16% 29.89 in - NE 4.6 mph - N/A   Clear
6:30 PM 86.0 °F - 41.0 °F 20% 29.92 in - NNE 4.6 mph - N/A   Clear
7:30 PM 82.4 °F - 41.0 °F 23% 29.92 in 5.0 mi Variable 2.3 mph - N/A   Unknown
8:30 PM 78.8 °F - 41.0 °F 26% 29.98 in 3.7 mi ESE 4.6 mph - N/A   Unknown
9:30 PM 75.2 °F - 44.6 °F 34% 29.98 in 3.7 mi Variable 2.3 mph - N/A   Unknown
10:30 PM 71.6 °F - 48.2 °F 43% 29.98 in 3.7 mi Variable 1.2 mph - N/A   Unknown
11:30 PM 68.0 °F - 57.2 °F 68% 30.01 in 3.7 mi Variable 3.5 mph - N/A   Unknown